Home   Weather   Little Rock   Past weeks
Flag for USA

Past Weather in Little Rock, Arkansas, USA — Yesterday and Last 2 Weeks

Now
56 °F

Overcast.


Feels Like: 55 °F
Forecast: 66 / 51 °F
Wind: 5 mph from West

Location: Adams Field

Current Time: Mar 25, 2019 at 4:54:53 am

Latest Report: Mar 25, 2019 at 3:53 am


Visibility: 10 mi

Pressure: 29.99 "Hg

Humidity: 97%

Dew Point: 55 °F

Location of Little RockLocation

Past Weather in Little Rock — Graph

°F

Little Rock Temperature Yesterday

Maximum temperature yesterday: 67 °F (at 5:53 pm)
Minimum temperature yesterday: 53 °F (at 12:53 am)
Average temperature yesterday: 59 °F

High & Low Weather Summary for the Past Weeks

 TemperatureHumidityPressure
High71 °F (Mar 22, 4:53 pm)100% (Mar 25, 2:53 am)30.50 "Hg (Mar 25, 2:53 am)
Low35 °F (Mar 17, 6:53 am)17% (Mar 22, 3:53 pm)29.62 "Hg (Mar 14, 3:22 am)
Average54 °F64%30.16 "Hg
* Reported Mar 10 3:53 am — Mar 25 3:31 am, Little Rock. Weather by CustomWeather, © 2019

Note: Actual official high and low records may vary slightly from our data, if they occured in-between our weather recording intervals... More about our weather records

Advertising

Little Rock Weather History for the Previous 24 Hours

Scroll right to see more
 ConditionsComfort  
Time TempWeatherWind HumidityBarometerVisibility
3:31 am
Mon, Mar 25
55 °FMostly cloudy.No wind100%29.99 "Hg10 mi
2:53 am54 °FFog.3 mph100%29.96 "Hg10 mi
1:53 am57 °FPartly cloudy.3 mph93%29.98 "Hg10 mi
12:53 am58 °FPartly cloudy.No wind90%30.01 "Hg10 mi
11:53 pm
Sun, Mar 24
61 °FMostly cloudy.8 mph83%29.99 "Hg10 mi
11:36 pm61 °FLight rain. Overcast.10 mph83%29.98 "Hg7 mi
11:00 pm63 °FThunderstorms. Fog.13 mph93%30.02 "Hg4 mi
10:53 pm63 °FLight rain. Fog.14 mph93%30.01 "Hg5 mi
9:53 pm64 °FLight rain. Mostly cloudy.10 mph87%30.01 "Hg10 mi
8:53 pm63 °FOvercast.10 mph87%29.99 "Hg10 mi
7:53 pm63 °FMostly cloudy.3 mph87%30.00 "Hg10 mi
6:53 pm65 °FMostly cloudy.3 mph81%30.01 "Hg10 mi
5:53 pm67 °FCloudy.8 mph76%30.01 "Hg10 mi
5:01 pm66 °FPartly sunny.8 mph78%30.02 "Hg10 mi
3:53 pm65 °FOvercast.7 mph78%30.04 "Hg10 mi
2:53 pm64 °FOvercast.7 mph78%30.05 "Hg10 mi
1:53 pm63 °FOvercast.9 mph78%30.07 "Hg10 mi
12:53 pm62 °FOvercast.6 mph78%30.09 "Hg10 mi
11:53 am61 °FOvercast.6 mph81%30.11 "Hg10 mi
10:53 am60 °FOvercast.7 mph80%30.13 "Hg10 mi
9:53 am57 °FOvercast.5 mph87%30.13 "Hg10 mi
8:53 am55 °FOvercast.7 mph90%30.12 "Hg10 mi
7:53 am53 °FPartly sunny.6 mph93%30.11 "Hg10 mi
6:53 am54 °FMostly cloudy.5 mph93%30.11 "Hg10 mi
6:36 am54 °FMostly cloudy.6 mph90%30.11 "Hg10 mi
6:10 am54 °FRain. Fog.3 mph90%30.12 "Hg3 mi
5:53 am54 °FLight rain. Mostly cloudy.3 mph90%30.13 "Hg8 mi
4:53 am55 °FLight rain. Overcast.8 mph83%30.10 "Hg10 mi
Weather by CustomWeather, © 2019

See weather overview